Location: *
(48.8780°N, 19.2358°E)
Time: 02:02:21
(UTC+00:00)

Cosmos 1939 Rocket - Pass Details

Date: 18 October 2019
Orbit: 534 x 584 km, 97.4° (Epoch: 11 November)

Event Time Altitude Azimuth Distance (km) Brightness Sun altitude
Rises 16:18:51 0° 125° (SE) 2,729 5.9 -5.7°
Reaches altitude 10° 16:21:27 10° 107° (ESE) 1,850 4.9 -6.2°
Maximum altitude 16:24:14 19° 62° (ENE) 1,396 4.3 -6.6°
Drops below altitude 10° 16:27:04 10° 18° (NNE) 1,880 5.3 -7.1°
Sets 16:29:44 0° 0° (N) 2,793 6.4 -7.5°
